DB0BGL Weather Reports


Display with metric or nautical units.
time (UTC)temp
F
wind
direction
speed
MPH
gust
MPH
rain 1hr
in
rain 24hr
in
rain mn
in
humidity
%
barometer
mb
20210728173615 47 7 1.0 8.0 0.00 0.00 0.00 94
20210728172615 48 5 3.0 13.0 0.00 0.00 0.00 94
20210728171613 49 0 3.0 6.0 0.00 0.00 0.00 92
20210728170613 49 21 7.0 10.0 0.00 0.00 0.00 90
20210728165612 49 16 5.0 9.0 0.00 0.00 0.00 90
20210728164611 49 18 7.0 11.0 0.00 0.00 0.00 90
20210728163611 49 8 6.0 12.0 0.00 0.00 0.00 91
20210728162610 49 8 7.0 10.0 0.00 0.00 0.00 91
20210728161610 49 12 3.0 7.0 0.00 0.00 0.00 91
20210728160609 49 5 3.0 9.0 0.00 0.00 0.00 91
20210728155609 49 11 3.0 9.0 0.00 0.00 0.00 92
20210728154608 49 9 6.0 10.0 0.00 0.00 0.00 92
20210728153608 49 5 2.0 5.0 0.00 0.00 0.00 93
20210728152607 49 8 3.0 9.0 0.00 0.00 0.00 91
20210728151606 49 7 3.0 9.0 0.00 0.00 0.00 92
20210728150606 49 358 8.0 12.0 0.00 0.00 0.00 93
20210728145606 49 16 5.0 6.0 0.00 0.00 0.00 95
20210728144608 48 4 7.0 8.0 0.00 0.00 0.00 94
20210728143604 49 14 4.0 9.0 0.00 0.00 0.00 95
20210728142604 49 18 5.0 8.0 0.00 0.00 0.00 95
20210728140602 49 12 5.0 5.0 0.00 0.00 0.00 97
20210728135602 49 11 4.0 8.0 0.00 0.00 0.00 98
20210728134054 49 1 0.0 7.0 0.00 0.00 0.00 98
20210728133045 49 8 0.0 0.0 0.00 0.00 0.00 98
20210728132044 50 8 0.0 0.0 0.00 0.00 0.00 98
20210728131043 50 7 0.0 2.0 0.00 0.00 0.00 98
20210728130043 49 8 2.0 8.0 0.00 0.00 0.00 98
20210728125131 50 14 5.0 12.0 0.00 0.00 0.00 97
20210728125042 50 14 5.0 12.0 0.00 0.00 0.00 97
20210728124118 51 11 0.0 0.0 0.00 0.00 0.00 96
20210728123041 53 11 0.0 2.0 0.00 0.00 0.00 95
20210728122100 55 7 1.0 6.0 0.00 0.00 0.00 95
20210728121040 59 355 3.0 3.0 0.00 0.00 0.00 92
20210728120039 59 0 1.0 3.0 0.00 0.00 0.00 91
20210728115039 60 14 0.0 4.0 0.00 0.00 0.00 89
20210728114038 64 180 0.0 3.0 0.00 0.00 0.00 81
20210728113037 70 180 0.0 2.0 0.00 0.00 0.00 68
20210728112037 73 180 0.0 0.0 0.00 0.00 0.00 61
20210728110036 73 180 0.0 0.0 0.00 0.00 0.00 58
20210728105035 74 180 0.0 0.0 0.00 0.00 0.00 55
20210728104035 74 180 0.0 1.0 0.00 0.00 0.00 59
20210728103034 74 180 0.0 0.0 0.00 0.00 0.00 59
20210728102033 72 180 0.0 0.0 0.00 0.00 0.00 62
20210728101033 75 180 0.0 0.0 0.00 0.00 0.00 58
20210728100033 76 180 0.0 0.0 0.00 0.00 0.00 55
20210728095032 76 180 0.0 2.0 0.00 0.00 0.00 54
20210728094031 76 180 0.0 0.0 0.00 0.00 0.00 56
20210728093031 75 180 0.0 0.0 0.00 0.00 0.00 57
20210728092030 74 180 0.0 1.0 0.00 0.00 0.00 57
20210728091029 73 180 0.0 1.0 0.00 0.00 0.00 58
20210728090029 72 180 1.0 1.0 0.00 0.00 0.00 61
20210728085028 72 180 0.0 3.0 0.00 0.00 0.00 62
20210728084028 72 180 0.0 1.0 0.00 0.00 0.00 61
20210728083030 71 180 0.0 2.0 0.00 0.00 0.00 61
20210728081055 72 180 0.0 3.0 0.00 0.00 0.00 59
20210728080054 71 180 0.0 5.0 0.00 0.00 0.00 62
20210728075054 70 180 0.0 4.0 0.00 0.00 0.00 62
20210728074053 69 180 0.0 5.0 0.00 0.00 0.00 65
20210728073053 69 180 3.0 6.0 0.00 0.00 0.00 53
20210728072052 70 180 1.0 3.0 0.00 0.00 0.00 61
20210728071051 71 180 0.0 0.0 0.00 0.00 0.00 62
20210728070051 71 180 0.0 2.0 0.00 0.00 0.00 58
20210728065050 71 180 0.0 2.0 0.00 0.00 0.00 58
20210728064050 72 180 0.0 0.0 0.00 0.00 0.00 61
20210728063049 66 180 0.0 0.0 0.00 0.00 0.00 68
20210728062052 64 180 0.0 0.0 0.00 0.00 0.00 77
20210728061048 62 180 0.0 2.0 0.00 0.00 0.00 82
20210728060047 58 180 1.0 4.0 0.00 0.00 0.00 91
20210728055047 56 180 0.0 0.0 0.00 0.00 0.00 93
20210728054046 54 180 0.0 1.0 0.00 0.00 0.00 96
20210728053046 54 180 0.0 0.0 0.00 0.00 0.00 95
20210728052045 54 180 1.0 3.0 0.00 0.00 0.00 95
20210728051046 54 180 0.0 0.0 0.00 0.00 0.00 96
20210728050044 54 180 0.0 2.0 0.00 0.00 0.00 96
20210728045043 54 180 0.0 0.0 0.00 0.00 0.00 96
20210728044043 53 180 0.0 0.0 0.00 0.00 0.00 98
20210727185638 59 180 0.0 0.0 0.00 0.00 0.00 69
20210727184636 59 180 0.0 0.0 0.00 0.00 0.00 71
20210727183636 60 180 2.0 2.0 0.00 0.00 0.00 70
20210727182635 60 180 0.0 0.0 0.00 0.00 0.00 66
20210727181635 60 180 2.0 6.0 0.00 0.00 0.00 69
20210727180634 61 180 1.0 5.0 0.00 0.00 0.00 66
20210727175633 61 180 2.0 10.0 0.00 0.00 0.00 62
20210727174633 61 180 1.0 11.0 0.00 0.00 0.00 62